Location: Gleizolles
(44.4833°N, 6.7667°E)
Time: 03:12:29
(UTC+00:00)

Vanguard 1 Rocket - Pass Details

Date: 28 June 2024
Orbit: 650 x 4219 km, 34.3° (Epoch: 15 July)

Event Time Altitude Azimuth Distance (km) Brightness Sun altitude
Rises 00:54:00 0° 245° (WSW) 4,960 - -20.0°
Reaches altitude 10° 00:56:41 10° 241° (WSW) 4,316 - -19.8°
Exits shadow 00:57:30 13° 239° (WSW) 4,140 10.3 -19.8°
Maximum altitude 01:09:11 58° 166° (SSE) 3,275 9.9 -19.0°
Drops below altitude 10° 01:31:37 10° 96° (E) 7,266 12.2 -17.3°
Sets 01:37:53 0° 94° (E) 8,444 12.7 -16.8°
